Walla Walla Regional Airport
KALW : now visible

Airfield :











YOU CAN JOIN US ON...

 
LOGIN :

Register | Disclaimer

   EN    FR    IT 

 









Legend :    VFR   Marginal VFR   IFR   Intensive IFR   Very Intensive IFR
Visi :
Ceiling :
>= 8 km
>= 3000ft
5 to 8 km
1000 to 3000 ft
1500m to 5 km
500 to 1000 ft
800 to 1500m
200 to 500 ft
< 800m
< 200 ft
Symbols :   Thunderstorms  Fog  Heavy snow  Heavy precipitations  Wind > 20 kt







- Airport Elevation : 1194 ft
- IATA code : ALW


KALW - Walla Walla Regional

CURRENT METAR :
  • 162153Z 13005KT 10SM FEW046 SCT060 OVC085 14/11 A2983 RMK AO2 RAE46 SLP100 P0004 T01440106

EXPIRED METARs :
  • 162053Z 00000KT 7SM RA BKN070 OVC080 14/11 A2983 RMK AO2 RAB1954 SLP102 P0004 60005 T01390111 53005
  • 161953Z 26005KT 10SM OVC075 14/12 A2982 RMK AO2 RAB21E35 SLP096 P0000 T01440117

TAF KALW
Valid from the 16 at 20:00 until the 17 at 18:00 UTC


162028Z 1620/1718 22007KT P6SM VCSH BKN060
FM170100 16006KT P6SM BKN080 OVC250
FM170700 19007KT P6SM SCT080 SCT250
No reported NOTAMs for that airfield.



MET'MAP, your aeronautical weather chart ! - Copyright ORBIFLY December 2007 - Disclaimer

ORBIFLY MET'MAP TEAM :

Programming & Development : Alexandra Zaïnal
Concept & Development : Baudouin d'Aumeries
Co-Development & Prog : Marc-Olivier Méhu
Technical & hardware support : Manuel Goepfert

Contact : metmap@orbifly.com




SOURCES & CREDITS :

   NOAA       Earth
Advisory